STARLINK-2190 (48564 NORAD) Tracking and Keplerian Element Data

This shows tracking and keplerian element data for the satellite.

Feedback or suggestion? Click here.




ElementValue
Catalog48564
NameSTARLINK-2190
Epoch Orbit1185
Epoch Day211.14065979
Epoch Year2021
RAAN129.3528
Inclination53.0561
Eccentricity0.000215
Argument of Perigee75.6811
Mean Anonmoly284.4416
Mean Motion15.06389538
Decay Rate-5.97E-06
L11 48564U 21041M 21211.14065979 -.00000597 00000-0 -21169-4 0 9999
L22 48564 53.0561 129.3528 0002150 75.6811 284.4416 15.06389538 11857

Live tracking and technical data element details for STARLINK-2190 (NORAD 48564). STARLINK-2190 can be tracked NOW for your location showing map with azimuth and elevation plus other details from your city location.

Track the satellite on the map from your city or location and see movement details for azimuth, elevation, latitude, longitude, range, height, and movement on the map or in text.







IsCatalogInMostPopularTable: catalog: 48564, numindb: 20
Update: records affected: 1



GetName: 48564 STARLINK-2190

Hit Count: updated at: Sat, 31 Jul 2021 14:40:03 GMT